Location: Muenchen
(48.1800°N, 11.5800°E)
Time: 14:30:16
(UTC+01:00)

Sich 1 Rocket - Visible Passes

Search period start: 31 October 2014 00:00
Search period end: 10 November 2014 00:00
Orbit: 617 x 655 km, 82.5° (Epoch: 30 October)

Date Brightness Start Highest point End Pass type
(mag) Time Alt. Az. Time Alt. Az. Time Alt. Az.
31 Oct 5.9 04:55:24 10° SE 04:59:08 27° E 05:02:52 10° NNE visible
01 Nov 4.5 05:17:18 10° S 05:21:39 51° E 05:25:59 10° NNE visible
02 Nov 6.9 04:05:07 10° ESE 04:06:44 12° E 04:08:22 10° ENE visible
02 Nov 3.5 05:39:48 10° SSW 05:44:17 80° W 05:48:46 10° N visible
02 Nov 6.4 17:25:46 10° NW 17:29:11 22° W 17:32:35 10° SW visible
03 Nov 6.0 04:25:36 10° SE 04:29:05 23° E 04:32:33 10° NE visible
03 Nov 4.0 06:02:51 10° SW 06:07:04 40° WNW 06:11:16 10° N visible
03 Nov 6.9 17:50:01 10° WNW 17:51:31 12° W 17:53:00 10° WSW visible
04 Nov 4.8 04:47:19 10° SSE 04:51:33 43° E 04:55:46 10° NNE visible
04 Nov 4.8 06:26:32 10° WSW 06:29:59 22° WNW 06:33:26 10° NNW visible
05 Nov 3.5 05:09:41 10° S 05:14:09 87° E 05:18:37 10° N visible
06 Nov 6.2 03:55:51 10° SE 03:59:00 19° E 04:02:10 10° NE visible
06 Nov 3.8 05:32:35 10° SSW 05:36:53 47° WNW 05:41:11 10° N visible
06 Nov 6.7 17:19:15 10° NW 17:21:28 14° W 17:23:40 10° WSW visible
07 Nov 5.0 04:17:22 10° SSE 04:21:27 37° E 04:25:31 10° NNE visible
07 Nov 4.6 05:56:06 10° SW 05:59:46 25° WNW 06:03:26 10° NNW visible
08 Nov 3.7 04:41:47 29° S 04:44:00 74° E 04:48:26 10° NNE visible
08 Nov 5.3 06:20:31 10° W 06:22:48 14° WNW 06:25:04 10° NNW visible
09 Nov 6.3 03:29:06 17° E 03:29:06 17° E 03:31:43 10° NE visible
09 Nov 3.6 05:06:43 55° WNW 05:06:43 55° WNW 05:11:04 10° N visible
